Minot, ND

4:19 PM CST on January 20, 2017 (GMT -0600)
Minot International

Weather History for KMOT - February, 2012

Change the Weather History Date:

Tuesday, February 7, 2012

  Actual Average Record
Temperature  
Mean Temperature 14 °F 15 °F  
Max Temperature 25 °F 24 °F 59 °F (1963)
Min Temperature 2 °F 6 °F -36 °F (1914)
Degree Days  
Heating Degree Days 51 50  
Month to date heating degree days 248 355  
Since 1 July heating degree days 4443 5587  
Moisture  
Dew Point 7 °F    
Average Humidity 71    
Maximum Humidity 92    
Minimum Humidity 50    
Precipitation  
Precipitation 0.00 in 0.01 in 0.18 in (1966)
Month to date precipitation 0.00 0.09  
Year to date precipitation 0.09 0.60  
Sea Level Pressure  
Sea Level Pressure 30.68 in    
Wind  
Wind Speed 6 mph (WNW)    
Max Wind Speed 12 mph    
Max Gust Speed 15 mph    
Visibility 10 miles    
Events      
T = Trace of Precipitation, MM = Missing Value Source: NWS Daily Summary

Daily Weather History Graph

Daily Weather History Graph

Search for Another Location

Airport or City:

Trip Planner

Search our weather history database for the weather conditions in past years. The results will help you decide how hot, cold, wet, or windy it might be!

Date:

Astronomy

Feb. 07, 2012 Rise Set
Actual Time 8:05 AM CST 5:53 PM CST
Civil Twilight 7:32 AM CST 6:26 PM CST
Nautical Twilight 6:55 AM CST 7:03 PM CST
Astronomical Twilight 6:19 AM CST 7:39 PM CST
Moon 6:11 PM CST (2/7) 7:32 AM CST (2/7)
Length of Visible Light 10h 53m
Length of Day
9h 47m
Full, 100% of the Moon is Illuminated
Feb 7
Full
Feb 7
Full
Feb 14
Last Quarter
Feb 21
New
Feb 29
First Quarter

Hourly Weather History & Observations

Time (CST) Temp. Windchill Dew Point Humidity Pressure Visibility Wind Dir Wind Speed Gust Speed Precip Events Conditions
12:54 AM 16.0 °F 5.3 °F 10.9 °F 81% 30.71 in 10.0 mi North 8.1 mph - N/A   Overcast
1:54 AM 12.9 °F -0.2 °F 9.0 °F 84% 30.73 in 10.0 mi North 10.4 mph - N/A   Overcast
2:54 AM 10.9 °F -0.8 °F 8.1 °F 88% 30.74 in 10.0 mi North 8.1 mph - N/A   Overcast
3:54 AM 10.9 °F -0.8 °F 7.0 °F 84% 30.75 in 10.0 mi North 8.1 mph - N/A   Overcast
4:54 AM 9.0 °F -2.2 °F 5.0 °F 84% 30.76 in 10.0 mi NNW 6.9 mph - N/A   Overcast
5:23 AM 6.8 °F -0.1 °F 3.2 °F 85% 30.65 in 10.0 mi NNW 3.5 mph - N/A   Scattered Clouds
5:54 AM 3.9 °F -5.3 °F -0.0 °F 84% 30.77 in 10.0 mi NW 4.6 mph - N/A   Clear
6:54 AM 3.0 °F -8.0 °F -0.9 °F 84% 30.78 in 10.0 mi NW 5.8 mph - N/A   Clear
7:54 AM 3.0 °F -8.0 °F -0.0 °F 87% 30.78 in 10.0 mi WNW 5.8 mph - N/A   Clear
8:54 AM 6.1 °F -2.8 °F 3.0 °F 87% 30.78 in 10.0 mi West 4.6 mph - N/A   Clear
9:54 AM 10.0 °F 3.6 °F 3.9 °F 76% 30.77 in 10.0 mi WSW 3.5 mph - N/A   Mostly Cloudy
10:54 AM 14.0 °F 3.9 °F 7.0 °F 74% 30.76 in 10.0 mi WNW 6.9 mph - N/A   Overcast
11:54 AM 16.0 °F 10.4 °F 6.1 °F 65% 30.75 in 10.0 mi WNW 3.5 mph - N/A   Mostly Cloudy
12:02 PM 17.6 °F 10.7 °F 6.8 °F 63% 30.64 in 10.0 mi NNW 4.6 mph - N/A   Partly Cloudy
12:54 PM 18.0 °F 9.8 °F 7.0 °F 62% 30.72 in 10.0 mi West 5.8 mph - N/A   Clear
1:54 PM 19.9 °F 14.9 °F 5.0 °F 52% 30.69 in 10.0 mi Variable 3.5 mph - N/A   Clear
2:54 PM 21.9 °F 17.2 °F 7.0 °F 53% 30.66 in 10.0 mi West 3.5 mph - N/A   Clear
3:54 PM 25.0 °F 19.3 °F 8.1 °F 49% 30.64 in 10.0 mi West 4.6 mph - N/A   Clear
4:54 PM 24.1 °F 18.2 °F 9.0 °F 53% 30.63 in 10.0 mi WNW 4.6 mph - N/A   Clear
5:54 PM 21.9 °F 15.7 °F 10.0 °F 60% 30.63 in 10.0 mi West 4.6 mph - N/A   Clear
6:54 PM 19.9 °F 11.1 °F 10.0 °F 65% 30.63 in 10.0 mi SW 6.9 mph - N/A   Clear
7:54 PM 16.0 °F 8.8 °F 10.0 °F 77% 30.62 in 10.0 mi WSW 4.6 mph - N/A   Clear
8:54 PM 16.0 °F 6.3 °F 10.0 °F 77% 30.60 in 10.0 mi SW 6.9 mph - N/A   Clear
9:54 PM 14.0 °F 2.9 °F 10.0 °F 84% 30.58 in 10.0 mi WSW 8.1 mph - N/A   Clear
10:54 PM 12.0 °F 2.7 °F 8.1 °F 84% 30.57 in 10.0 mi SW 5.8 mph - N/A   Clear
11:54 PM 10.9 °F 0.2 °F 7.0 °F 84% 30.56 in 10.0 mi SW 6.9 mph - N/A   Clear